| time (UTC) | temp F | wind direction | speed MPH | gust MPH | rain 1hr in | rain 24hr in | rain mn in | humidity % | barometer mb |
| 20260509032004 | 42 | 10 | 0.0 | 1.0 | 0.00 | 0.05 | 0.05 | 81 | 1009.1 |
| 20260509031545 | 42 | 0 | 0.0 | 1.0 | 0.00 | 0.05 | 0.05 | 81 | 1010.1 |
| 20260509031504 | 42 | 325 | 0.0 | 1.0 | 0.00 | 0.05 | 0.05 | 81 | 1009.1 |
| 20260509031004 | 42 | 228 | 0.0 | 1.0 | 0.00 | 0.05 | 0.05 | 81 | 1009.2 |
| 20260509030504 | 43 | 99 | 0.0 | 1.0 | 0.00 | 0.05 | 0.05 | 81 | 1009.2 |
| 20260509030048 | 42 | 0 | 0.0 | 1.0 | 0.00 | 0.05 | 0.05 | 80 | 1010.1 |
| 20260509030003 | 43 | 39 | 1.0 | 1.0 | 0.00 | 0.05 | 0.05 | 81 | 1009.2 |
| 20260509025003 | 43 | 267 | 0.0 | 1.0 | 0.00 | 0.05 | 0.05 | 79 | 1009.2 |
| 20260509024545 | 43 | 0 | 0.0 | 1.0 | 0.00 | 0.05 | 0.05 | 78 | 1010.1 |
| 20260509024504 | 44 | 0 | 0.0 | 1.0 | 0.00 | 0.05 | 0.05 | 79 | 1009.2 |
| 20260509024003 | 44 | 255 | 0.0 | 1.0 | 0.00 | 0.05 | 0.05 | 78 | 1009.2 |
| 20260509023504 | 44 | 27 | 0.0 | 0.0 | 0.00 | 0.05 | 0.05 | 78 | 1009.3 |
| 20260509023046 | 44 | 0 | 0.0 | 1.0 | 0.00 | 0.05 | 0.05 | 77 | 1010.2 |
| 20260509022503 | 45 | 310 | 0.0 | 1.0 | 0.00 | 0.05 | 0.05 | 77 | 1009.3 |
| 20260509022003 | 45 | 3 | 0.0 | 0.0 | 0.00 | 0.05 | 0.05 | 76 | 1009.2 |
| 20260509021553 | 44 | 0 | 0.0 | 1.0 | 0.00 | 0.05 | 0.05 | 75 | 1010.2 |
| 20260509021004 | 45 | 180 | 0.0 | 1.0 | 0.00 | 0.05 | 0.05 | 74 | 1009.2 |
| 20260509020503 | 46 | 192 | 0.0 | 1.0 | 0.00 | 0.05 | 0.05 | 74 | 1009.3 |
| 20260509020053 | 45 | 0 | 0.0 | 1.0 | 0.00 | 0.05 | 0.05 | 73 | 1010.2 |
| 20260509015504 | 46 | 302 | 0.0 | 1.0 | 0.00 | 0.05 | 0.05 | 73 | 1009.3 |
| 20260509015003 | 47 | 311 | 0.0 | 1.0 | 0.00 | 0.05 | 0.05 | 72 | 1009.2 |
| 20260509014550 | 46 | 0 | 0.0 | 1.0 | 0.00 | 0.05 | 0.05 | 70 | 1010.1 |
| 20260509014503 | 47 | 339 | 0.0 | 1.0 | 0.00 | 0.05 | 0.05 | 70 | 1009.2 |
| 20260509014004 | 47 | 181 | 0.0 | 1.0 | 0.00 | 0.05 | 0.05 | 69 | 1009.2 |
| 20260509013503 | 48 | 154 | 0.0 | 1.0 | 0.00 | 0.05 | 0.05 | 68 | 1009.2 |
| 20260509013053 | 47 | 0 | 0.0 | 1.0 | 0.00 | 0.05 | 0.05 | 68 | 1010.1 |
| 20260509013003 | 48 | 69 | 0.0 | 1.0 | 0.00 | 0.05 | 0.05 | 68 | 1009.1 |
| 20260509012504 | 48 | 346 | 0.0 | 1.0 | 0.00 | 0.05 | 0.05 | 68 | 1009.1 |
| 20260509011550 | 48 | 0 | 0.0 | 1.0 | 0.00 | 0.05 | 0.05 | 66 | 1010.0 |
| 20260509011504 | 49 | 299 | 0.0 | 0.0 | 0.00 | 0.05 | 0.05 | 67 | 1009.0 |
| 20260509011003 | 50 | 24 | 0.0 | 1.0 | 0.00 | 0.05 | 0.05 | 66 | 1009.0 |
| 20260509010504 | 50 | 322 | 0.0 | 1.0 | 0.00 | 0.05 | 0.05 | 65 | 1008.9 |
| 20260509010051 | 50 | 0 | 0.0 | 1.0 | 0.00 | 0.05 | 0.05 | 62 | 1009.7 |
| 20260509005503 | 51 | 64 | 0.0 | 0.0 | 0.00 | 0.05 | 0.05 | 61 | 1008.6 |
| 20260509005004 | 51 | 49 | 0.0 | 1.0 | 0.00 | 0.05 | 0.05 | 59 | 1008.6 |
| 20260509004546 | 51 | 0 | 0.0 | 2.0 | 0.00 | 0.05 | 0.05 | 58 | 1009.4 |
| 20260509004504 | 52 | 86 | 0.0 | 1.0 | 0.00 | 0.05 | 0.05 | 58 | 1008.6 |
| 20260509004004 | 52 | 122 | 0.0 | 1.0 | 0.00 | 0.05 | 0.05 | 57 | 1008.5 |
| 20260509003050 | 53 | 117 | 0.0 | 1.0 | 0.00 | 0.05 | 0.05 | 54 | 1009.4 |
| 20260509002004 | 54 | 34 | 0.0 | 1.0 | 0.00 | 0.05 | 0.05 | 52 | 1008.5 |
| 20260509001548 | 54 | 0 | 0.0 | 1.0 | 0.00 | 0.05 | 0.05 | 50 | 1009.3 |
| 20260509001504 | 55 | 73 | 0.0 | 1.0 | 0.00 | 0.05 | 0.05 | 50 | 1008.5 |
| 20260509001004 | 55 | 62 | 0.0 | 1.0 | 0.00 | 0.05 | 0.05 | 50 | 1008.5 |
| 20260509000503 | 55 | 101 | 0.0 | 1.0 | 0.00 | 0.05 | 0.05 | 49 | 1008.4 |
| 20260509000049 | 55 | 0 | 0.0 | 1.0 | 0.00 | 0.05 | 0.05 | 49 | 1009.2 |
| 20260508235504 | 56 | 35 | 0.0 | 1.0 | 0.00 | 0.05 | 0.05 | 49 | 1008.5 |
| 20260508235004 | 56 | 357 | 0.0 | 1.0 | 0.00 | 0.05 | 0.05 | 48 | 1008.5 |
| 20260508234547 | 56 | 0 | 0.0 | 2.0 | 0.00 | 0.05 | 0.05 | 49 | 1009.2 |
| 20260508234504 | 56 | 41 | 0.0 | 1.0 | 0.00 | 0.05 | 0.05 | 48 | 1008.4 |
| 20260508234004 | 56 | 39 | 0.0 | 2.0 | 0.00 | 0.05 | 0.05 | 49 | 1008.3 |
| 20260508233503 | 57 | 38 | 1.0 | 2.0 | 0.00 | 0.05 | 0.05 | 47 | 1008.2 |
| 20260508233104 | 57 | 20 | 0.0 | 2.0 | 0.00 | 0.05 | 0.05 | 45 | 1009.0 |
| 20260508233003 | 57 | 20 | 0.0 | 2.0 | 0.00 | 0.05 | 0.05 | 46 | 1008.1 |
| 20260508231557 | 57 | 0 | 0.0 | 4.0 | 0.00 | 0.05 | 0.05 | 43 | 1008.9 |
| 20260508231503 | 58 | 16 | 1.0 | 2.0 | 0.00 | 0.05 | 0.05 | 44 | 1008.1 |
| 20260508231004 | 58 | 19 | 2.0 | 3.0 | 0.00 | 0.05 | 0.05 | 41 | 1008.0 |
| 20260508230503 | 59 | 6 | 1.0 | 3.0 | 0.00 | 0.05 | 0.05 | 40 | 1008.0 |
| 20260508230055 | 59 | 63 | 0.0 | 2.0 | 0.00 | 0.05 | 0.05 | 38 | 1008.9 |
| 20260508230003 | 59 | 29 | 0.0 | 2.0 | 0.00 | 0.05 | 0.05 | 37 | 1008.1 |
| 20260508225504 | 59 | 106 | 1.0 | 2.0 | 0.00 | 0.05 | 0.05 | 39 | 1008.2 |
| 20260508225004 | 60 | 57 | 1.0 | 2.0 | 0.00 | 0.05 | 0.05 | 37 | 1008.1 |
| 20260508224546 | 60 | 53 | 1.0 | 2.0 | 0.00 | 0.05 | 0.05 | 37 | 1009.0 |
| 20260508224504 | 60 | 1 | 1.0 | 2.0 | 0.00 | 0.05 | 0.05 | 38 | 1008.2 |
| 20260508223503 | 58 | 8 | 1.0 | 3.0 | 0.00 | 0.05 | 0.05 | 38 | 1008.1 |
| 20260508223051 | 58 | 253 | 1.0 | 4.0 | 0.00 | 0.05 | 0.05 | 36 | 1008.9 |
| 20260508222503 | 60 | 355 | 2.0 | 3.0 | 0.00 | 0.05 | 0.05 | 34 | 1008.1 |
| 20260508222003 | 60 | 171 | 1.0 | 3.0 | 0.00 | 0.05 | 0.05 | 36 | 1008.1 |
| 20260508221550 | 59 | 39 | 1.0 | 3.0 | 0.00 | 0.05 | 0.05 | 35 | 1008.9 |
| 20260508221004 | 59 | 41 | 2.0 | 3.0 | 0.00 | 0.05 | 0.05 | 34 | 1008.2 |
| 20260508220048 | 59 | 1 | 1.0 | 6.0 | 0.00 | 0.05 | 0.05 | 35 | 1009.0 |
| 20260508220004 | 60 | 329 | 2.0 | 3.0 | 0.00 | 0.05 | 0.05 | 35 | 1008.2 |
| 20260508215503 | 59 | 317 | 2.0 | 5.0 | 0.00 | 0.05 | 0.05 | 35 | 1008.2 |
| 20260508214551 | 62 | 1 | 1.0 | 7.0 | 0.00 | 0.05 | 0.05 | 34 | 1009.1 |
| 20260508214503 | 62 | 310 | 1.0 | 5.0 | 0.00 | 0.05 | 0.05 | 34 | 1008.2 |
| 20260508213504 | 61 | 238 | 2.0 | 3.0 | 0.00 | 0.05 | 0.05 | 34 | 1008.2 |
| 20260508213055 | 64 | 9 | 1.0 | 3.0 | 0.00 | 0.05 | 0.05 | 31 | 1009.1 |
| 20260508213003 | 65 | 108 | 2.0 | 3.0 | 0.00 | 0.05 | 0.05 | 33 | 1008.3 |
| 20260508212504 | 61 | 109 | 2.0 | 3.0 | 0.00 | 0.05 | 0.05 | 34 | 1008.3 |
| 20260508212003 | 65 | 345 | 1.0 | 3.0 | 0.00 | 0.05 | 0.05 | 33 | 1008.3 |
| 20260508211556 | 63 | 314 | 1.0 | 5.0 | 0.00 | 0.05 | 0.05 | 36 | 1009.3 |
| 20260508211504 | 62 | 75 | 2.0 | 3.0 | 0.00 | 0.05 | 0.05 | 34 | 1008.3 |
| 20260508211004 | 59 | 194 | 2.0 | 5.0 | 0.00 | 0.05 | 0.05 | 37 | 1008.3 |
| 20260508210503 | 59 | 308 | 2.0 | 6.0 | 0.00 | 0.05 | 0.05 | 37 | 1008.4 |
| 20260508210050 | 60 | 9 | 2.0 | 7.0 | 0.00 | 0.05 | 0.05 | 37 | 1009.2 |
| 20260508210003 | 60 | 350 | 2.0 | 3.0 | 0.00 | 0.05 | 0.05 | 38 | 1008.3 |
| 20260508205504 | 59 | 8 | 4.0 | 7.0 | 0.00 | 0.05 | 0.05 | 38 | 1008.4 |
| 20260508205004 | 61 | 12 | 2.0 | 3.0 | 0.00 | 0.05 | 0.05 | 34 | 1008.4 |
| 20260508204550 | 62 | 0 | 1.0 | 3.0 | 0.00 | 0.05 | 0.05 | 34 | 1009.4 |
| 20260508204504 | 63 | 355 | 1.0 | 3.0 | 0.00 | 0.05 | 0.05 | 36 | 1008.4 |
| 20260508204004 | 62 | 72 | 1.0 | 3.0 | 0.00 | 0.05 | 0.05 | 39 | 1008.4 |
| 20260508203504 | 57 | 358 | 2.0 | 6.0 | 0.00 | 0.05 | 0.05 | 42 | 1008.6 |
| 20260508203056 | 58 | 343 | 2.0 | 6.0 | 0.00 | 0.05 | 0.05 | 38 | 1009.5 |
| 20260508203004 | 58 | 359 | 2.0 | 3.0 | 0.00 | 0.05 | 0.05 | 38 | 1008.6 |
| 20260508202503 | 58 | 264 | 3.0 | 5.0 | 0.00 | 0.05 | 0.05 | 36 | 1008.7 |
| 20260508202003 | 59 | 276 | 2.0 | 6.0 | 0.00 | 0.05 | 0.05 | 37 | 1008.8 |
| 20260508201548 | 59 | 240 | 4.0 | 10.0 | 0.00 | 0.05 | 0.05 | 35 | 1009.7 |
| 20260508201503 | 60 | 225 | 6.0 | 10.0 | 0.00 | 0.05 | 0.05 | 34 | 1008.9 |
| 20260508201004 | 60 | 174 | 5.0 | 8.0 | 0.00 | 0.05 | 0.05 | 36 | 1008.9 |
| 20260508200503 | 58 | 229 | 3.0 | 9.0 | 0.00 | 0.05 | 0.05 | 39 | 1008.9 |
| 20260508200103 | 57 | 194 | 4.0 | 9.0 | 0.00 | 0.05 | 0.05 | 38 | 1009.7 |
| 20260508200003 | 58 | 204 | 5.0 | 8.0 | 0.00 | 0.05 | 0.05 | 37 | 1008.9 |
| 20260508195004 | 58 | 210 | 3.0 | 8.0 | 0.00 | 0.05 | 0.05 | 39 | 1009.0 |
| 20260508194550 | 58 | 243 | 3.0 | 7.0 | 0.00 | 0.05 | 0.05 | 39 | 1009.9 |
| 20260508194504 | 59 | 239 | 4.0 | 7.0 | 0.00 | 0.05 | 0.05 | 37 | 1009.0 |
| 20260508194003 | 58 | 322 | 2.0 | 3.0 | 0.00 | 0.05 | 0.05 | 38 | 1009.2 |
| 20260508193503 | 60 | 320 | 2.0 | 5.0 | 0.00 | 0.05 | 0.05 | 37 | 1009.3 |
| 20260508193048 | 58 | 354 | 4.0 | 11.0 | 0.00 | 0.05 | 0.05 | 39 | 1010.1 |
| 20260508193003 | 58 | 342 | 3.0 | 12.0 | 0.00 | 0.05 | 0.05 | 39 | 1009.5 |
| 20260508192003 | 58 | 166 | 3.0 | 8.0 | 0.00 | 0.05 | 0.05 | 39 | 1009.5 |
| 20260508191551 | 57 | 318 | 4.0 | 8.0 | 0.00 | 0.05 | 0.05 | 41 | 1010.2 |
| 20260508191004 | 60 | 185 | 2.0 | 6.0 | 0.00 | 0.05 | 0.05 | 37 | 1009.6 |
| 20260508190051 | 60 | 28 | 1.0 | 7.0 | 0.00 | 0.05 | 0.05 | 38 | 1010.2 |
| 20260508190004 | 59 | 118 | 2.0 | 3.0 | 0.00 | 0.05 | 0.05 | 39 | 1009.6 |
| 20260508185503 | 58 | 351 | 2.0 | 7.0 | 0.00 | 0.05 | 0.05 | 43 | 1009.7 |
| 20260508184553 | 60 | 283 | 2.0 | 7.0 | 0.00 | 0.05 | 0.05 | 40 | 1010.4 |
| 20260508184503 | 60 | 271 | 2.0 | 7.0 | 0.00 | 0.05 | 0.05 | 45 | 1009.6 |
| 20260508184004 | 58 | 315 | 1.0 | 3.0 | 0.00 | 0.05 | 0.05 | 42 | 1009.6 |
| 20260508183504 | 57 | 327 | 2.0 | 5.0 | 0.00 | 0.05 | 0.05 | 49 | 1009.7 |
| 20260508183051 | 56 | 322 | 2.0 | 9.0 | 0.00 | 0.05 | 0.05 | 44 | 1010.4 |
| 20260508183003 | 56 | 276 | 3.0 | 9.0 | 0.00 | 0.05 | 0.05 | 47 | 1009.7 |
| 20260508182004 | 62 | 256 | 2.0 | 5.0 | 0.00 | 0.05 | 0.05 | 42 | 1009.7 |
| 20260508181552 | 58 | 152 | 1.0 | 9.0 | 0.00 | 0.05 | 0.05 | 45 | 1010.5 |
| 20260508181503 | 58 | 192 | 2.0 | 7.0 | 0.00 | 0.05 | 0.05 | 46 | 1009.8 |
| 20260508181003 | 57 | 241 | 5.0 | 9.0 | 0.00 | 0.05 | 0.05 | 45 | 1009.8 |
| 20260508180503 | 57 | 297 | 2.0 | 7.0 | 0.00 | 0.05 | 0.05 | 48 | 1009.8 |
| 20260508180051 | 55 | 63 | 1.0 | 11.0 | 0.00 | 0.05 | 0.05 | 52 | 1010.6 |
| 20260508180004 | 55 | 163 | 2.0 | 9.0 | 0.00 | 0.05 | 0.05 | 52 | 1009.8 |
| 20260508175504 | 56 | 198 | 5.0 | 12.0 | 0.00 | 0.05 | 0.05 | 50 | 1009.9 |
| 20260508174608 | 54 | 243 | 5.0 | 10.0 | 0.00 | 0.05 | 0.05 | 50 | 1010.8 |
| 20260508174504 | 54 | 224 | 5.0 | 10.0 | 0.00 | 0.05 | 0.05 | 50 | 1009.9 |
| 20260508174003 | 53 | 184 | 7.0 | 10.0 | 0.00 | 0.05 | 0.05 | 52 | 1010.0 |
| 20260508173049 | 53 | 245 | 4.0 | 11.0 | 0.00 | 0.05 | 0.05 | 56 | 1011.0 |
| 20260508172504 | 55 | 233 | 3.0 | 8.0 | 0.00 | 0.05 | 0.05 | 54 | 1010.2 |
| 20260508172004 | 55 | 173 | 2.0 | 9.0 | 0.00 | 0.05 | 0.05 | 57 | 1010.1 |
| 20260508171551 | 54 | 243 | 4.0 | 10.0 | 0.00 | 0.05 | 0.05 | 52 | 1011.1 |
| 20260508171503 | 54 | 186 | 5.0 | 10.0 | 0.00 | 0.05 | 0.05 | 56 | 1010.2 |
| 20260508171004 | 53 | 195 | 6.0 | 9.0 | 0.00 | 0.05 | 0.05 | 56 | 1010.4 |
| 20260508170504 | 54 | 243 | 2.0 | 7.0 | 0.00 | 0.05 | 0.05 | 56 | 1010.4 |
| 20260508170053 | 53 | 178 | 2.0 | 9.0 | 0.00 | 0.05 | 0.05 | 57 | 1011.2 |
| 20260508170004 | 53 | 195 | 2.0 | 9.0 | 0.00 | 0.05 | 0.05 | 61 | 1010.4 |
| 20260508165503 | 51 | 231 | 3.0 | 8.0 | 0.00 | 0.05 | 0.05 | 60 | 1010.5 |
| 20260508165004 | 51 | 203 | 2.0 | 5.0 | 0.00 | 0.05 | 0.05 | 61 | 1010.6 |
| 20260508164552 | 51 | 0 | 1.0 | 5.0 | 0.00 | 0.05 | 0.05 | 59 | 1011.4 |
| 20260508164504 | 51 | 224 | 2.0 | 5.0 | 0.00 | 0.05 | 0.05 | 60 | 1010.6 |
| 20260508164003 | 52 | 251 | 2.0 | 5.0 | 0.00 | 0.05 | 0.05 | 61 | 1010.7 |
| 20260508163047 | 50 | 230 | 4.0 | 8.0 | 0.00 | 0.05 | 0.05 | 64 | 1011.6 |
| 20260508163004 | 51 | 209 | 5.0 | 8.0 | 0.00 | 0.05 | 0.05 | 64 | 1010.9 |
| 20260508162504 | 51 | 196 | 2.0 | 8.0 | 0.00 | 0.05 | 0.05 | 66 | 1011.0 |
| 20260508162004 | 49 | 213 | 3.0 | 6.0 | 0.00 | 0.05 | 0.05 | 65 | 1010.9 |
| 20260508161549 | 50 | 245 | 2.0 | 7.0 | 0.00 | 0.05 | 0.05 | 63 | 1011.7 |
| 20260508160503 | 50 | 253 | 3.0 | 7.0 | 0.00 | 0.05 | 0.05 | 67 | 1011.0 |
| 20260508160053 | 49 | 0 | 2.0 | 10.0 | 0.00 | 0.05 | 0.05 | 64 | 1011.7 |
| 20260508155504 | 51 | 207 | 5.0 | 10.0 | 0.00 | 0.05 | 0.05 | 66 | 1011.0 |
| 20260508155004 | 51 | 221 | 3.0 | 6.0 | 0.00 | 0.05 | 0.05 | 67 | 1011.1 |
| 20260508154552 | 48 | 232 | 3.0 | 8.0 | 0.00 | 0.05 | 0.05 | 68 | 1011.8 |
| 20260508154503 | 49 | 189 | 3.0 | 5.0 | 0.00 | 0.05 | 0.05 | 68 | 1011.0 |
| 20260508154004 | 49 | 243 | 3.0 | 8.0 | 0.00 | 0.05 | 0.05 | 68 | 1011.0 |
| 20260508153503 | 49 | 229 | 4.0 | 7.0 | 0.00 | 0.05 | 0.05 | 68 | 1011.0 |
| 20260508153052 | 48 | 211 | 5.0 | 9.0 | 0.00 | 0.05 | 0.05 | 69 | 1011.6 |
| 20260508153003 | 49 | 172 | 5.0 | 8.0 | 0.00 | 0.05 | 0.05 | 69 | 1011.0 |
| 20260508152504 | 49 | 249 | 3.0 | 6.0 | 0.00 | 0.05 | 0.05 | 69 | 1010.9 |
| 20260508152004 | 48 | 235 | 3.0 | 8.0 | 0.00 | 0.05 | 0.05 | 72 | 1010.9 |
| 20260508151558 | 48 | 234 | 3.0 | 8.0 | 0.00 | 0.05 | 0.05 | 71 | 1011.6 |
| 20260508151003 | 48 | 179 | 2.0 | 6.0 | 0.00 | 0.05 | 0.05 | 75 | 1011.0 |
| 20260508150504 | 48 | 204 | 3.0 | 8.0 | 0.00 | 0.05 | 0.05 | 74 | 1011.0 |
| 20260508150052 | 47 | 0 | 3.0 | 8.0 | 0.00 | 0.05 | 0.05 | 71 | 1011.6 |
| 20260508150004 | 48 | 220 | 4.0 | 8.0 | 0.00 | 0.05 | 0.05 | 72 | 1010.9 |
| 20260508145504 | 48 | 161 | 3.0 | 8.0 | 0.00 | 0.05 | 0.05 | 75 | 1010.8 |
| 20260508145003 | 47 | 185 | 2.0 | 6.0 | 0.00 | 0.05 | 0.05 | 77 | 1010.8 |
| 20260508144550 | 46 | 198 | 3.0 | 8.0 | 0.00 | 0.05 | 0.05 | 76 | 1011.5 |
| 20260508144004 | 46 | 154 | 4.0 | 8.0 | 0.00 | 0.05 | 0.05 | 79 | 1010.9 |
| 20260508143503 | 46 | 193 | 4.0 | 7.0 | 0.00 | 0.05 | 0.05 | 80 | 1010.9 |
| 20260508143056 | 45 | 138 | 4.0 | 7.0 | 0.00 | 0.05 | 0.05 | 79 | 1011.7 |
| 20260508143004 | 45 | 170 | 3.0 | 6.0 | 0.00 | 0.05 | 0.05 | 81 | 1011.0 |
| 20260508142504 | 44 | 207 | 3.0 | 6.0 | 0.00 | 0.05 | 0.05 | 83 | 1011.1 |
| 20260508142004 | 44 | 176 | 3.0 | 6.0 | 0.00 | 0.05 | 0.05 | 84 | 1011.1 |
| 20260508141550 | 44 | 219 | 2.0 | 4.0 | 0.00 | 0.05 | 0.05 | 85 | 1011.8 |
| 20260508141504 | 44 | 230 | 2.0 | 3.0 | 0.00 | 0.05 | 0.05 | 84 | 1011.1 |
| 20260508141003 | 44 | 209 | 2.0 | 3.0 | 0.00 | 0.05 | 0.05 | 84 | 1011.1 |
| 20260508140504 | 44 | 236 | 1.0 | 3.0 | 0.01 | 0.05 | 0.05 | 86 | 1011.1 |
| 20260508140058 | 43 | 236 | 1.0 | 4.0 | 0.01 | 0.05 | 0.05 | 84 | 1011.8 |
| 20260508140004 | 44 | 224 | 2.0 | 3.0 | 0.01 | 0.05 | 0.05 | 85 | 1011.2 |
| 20260508135504 | 44 | 224 | 2.0 | 3.0 | 0.01 | 0.05 | 0.05 | 85 | 1011.2 |
| 20260508135004 | 44 | 258 | 1.0 | 2.0 | 0.01 | 0.05 | 0.05 | 88 | 1011.2 |
| 20260508134553 | 43 | 0 | 0.0 | 3.0 | 0.01 | 0.05 | 0.05 | 86 | 1011.8 |
| 20260508134503 | 44 | 227 | 1.0 | 3.0 | 0.01 | 0.05 | 0.05 | 86 | 1011.1 |
| 20260508134003 | 44 | 232 | 1.0 | 3.0 | 0.01 | 0.05 | 0.05 | 87 | 1011.1 |
| 20260508133504 | 44 | 196 | 2.0 | 3.0 | 0.02 | 0.05 | 0.05 | 88 | 1011.1 |
| 20260508133050 | 43 | 234 | 1.0 | 5.0 | 0.02 | 0.05 | 0.05 | 87 | 1011.8 |
| 20260508133004 | 43 | 269 | 2.0 | 5.0 | 0.02 | 0.05 | 0.05 | 88 | 1011.2 |
| 20260508132503 | 43 | 220 | 2.0 | 3.0 | 0.03 | 0.05 | 0.05 | 88 | 1011.2 |
| 20260508132003 | 43 | 53 | 2.0 | 6.0 | 0.03 | 0.05 | 0.05 | 88 | 1011.1 |
| 20260508131556 | 43 | 215 | 2.0 | 5.0 | 0.03 | 0.05 | 0.05 | 88 | 1011.8 |
| 20260508131004 | 43 | 236 | 2.0 | 5.0 | 0.03 | 0.05 | 0.05 | 88 | 1011.2 |
| 20260508130503 | 43 | 242 | 1.0 | 3.0 | 0.03 | 0.04 | 0.04 | 88 | 1011.1 |
| 20260508130103 | 42 | 223 | 1.0 | 4.0 | 0.03 | 0.04 | 0.04 | 88 | 1011.7 |
| 20260508130004 | 43 | 224 | 2.0 | 3.0 | 0.03 | 0.04 | 0.04 | 88 | 1011.1 |
| 20260508125504 | 43 | 236 | 2.0 | 3.0 | 0.03 | 0.04 | 0.04 | 88 | 1011.1 |
| 20260508125004 | 43 | 351 | 1.0 | 3.0 | 0.03 | 0.04 | 0.04 | 89 | 1011.1 |
| 20260508124551 | 42 | 0 | 1.0 | 6.0 | 0.03 | 0.04 | 0.04 | 88 | 1011.8 |
| 20260508124504 | 43 | 255 | 1.0 | 3.0 | 0.03 | 0.04 | 0.04 | 89 | 1011.1 |
| 20260508124003 | 43 | 275 | 2.0 | 6.0 | 0.03 | 0.04 | 0.04 | 88 | 1011.0 |
| 20260508123504 | 43 | 232 | 2.0 | 3.0 | 0.02 | 0.03 | 0.03 | 89 | 1011.0 |
| 20260508123059 | 42 | 89 | 1.0 | 8.0 | 0.02 | 0.03 | 0.03 | 90 | 1011.6 |
| 20260508123004 | 43 | 245 | 2.0 | 7.0 | 0.02 | 0.03 | 0.03 | 91 | 1010.9 |
| 20260508122504 | 43 | 245 | 3.0 | 8.0 | 0.01 | 0.02 | 0.02 | 93 | 1010.9 |
| 20260508121546 | 42 | 193 | 1.0 | 3.0 | 0.01 | 0.02 | 0.02 | 94 | 1011.4 |
| 20260508121504 | 42 | 204 | 1.0 | 3.0 | 0.01 | 0.02 | 0.02 | 94 | 1010.5 |
| 20260508121003 | 42 | 60 | 0.0 | 2.0 | 0.01 | 0.02 | 0.02 | 94 | 1010.5 |
| 20260508120503 | 42 | 304 | 0.0 | 1.0 | 0.00 | 0.01 | 0.01 | 94 | 1010.3 |
| 20260508120053 | 41 | 0 | 0.0 | 2.0 | 0.00 | 0.01 | 0.01 | 94 | 1011.0 |
| 20260508120004 | 42 | 255 | 1.0 | 2.0 | 0.00 | 0.01 | 0.01 | 94 | 1010.2 |
| 20260508115505 | 42 | 335 | 0.0 | 1.0 | 0.00 | 0.01 | 0.01 | 94 | 1010.1 |
| 20260508115003 | 42 | 329 | 1.0 | 2.0 | 0.00 | 0.01 | 0.01 | 94 | 1010.1 |
| 20260508114553 | 41 | 206 | 0.0 | 3.0 | 0.00 | 0.01 | 0.01 | 93 | 1010.8 |
| 20260508114503 | 41 | 184 | 1.0 | 2.0 | 0.00 | 0.01 | 0.01 | 94 | 1010.0 |
| 20260508114004 | 41 | 181 | 1.0 | 3.0 | 0.00 | 0.01 | 0.01 | 94 | 1010.0 |
| 20260508113504 | 41 | 193 | 1.0 | 2.0 | 0.00 | 0.01 | 0.01 | 94 | 1010.0 |
| 20260508113050 | 41 | 0 | 0.0 | 1.0 | 0.00 | 0.01 | 0.01 | 94 | 1010.7 |
| 20260508113004 | 41 | 252 | 1.0 | 1.0 | 0.00 | 0.01 | 0.01 | 94 | 1009.9 |
| 20260508112503 | 41 | 272 | 1.0 | 1.0 | 0.00 | 0.01 | 0.01 | 94 | 1009.8 |
| 20260508112004 | 41 | 248 | 0.0 | 1.0 | 0.00 | 0.01 | 0.01 | 94 | 1009.8 |
| 20260508111602 | 40 | 0 | 0.0 | 1.0 | 0.00 | 0.01 | 0.01 | 93 | 1010.4 |
| 20260508111504 | 41 | 22 | 0.0 | 1.0 | 0.00 | 0.01 | 0.01 | 94 | 1009.6 |
| 20260508111004 | 41 | 230 | 0.0 | 1.0 | 0.00 | 0.01 | 0.01 | 94 | 1009.6 |
| 20260508110503 | 40 | 231 | 0.0 | 1.0 | 0.00 | 0.01 | 0.01 | 94 | 1009.5 |
| 20260508110049 | 40 | 0 | 0.0 | 1.0 | 0.00 | 0.01 | 0.01 | 93 | 1010.2 |
| 20260508110003 | 40 | 58 | 0.0 | 1.0 | 0.00 | 0.01 | 0.01 | 94 | 1009.3 |
| 20260508105504 | 40 | 342 | 0.0 | 1.0 | 0.00 | 0.01 | 0.01 | 94 | 1009.4 |
| 20260508105004 | 40 | 16 | 0.0 | 1.0 | 0.00 | 0.01 | 0.01 | 94 | 1009.4 |
| 20260508104559 | 40 | 0 | 0.0 | 2.0 | 0.00 | 0.01 | 0.01 | 93 | 1010.2 |
| 20260508104503 | 40 | 319 | 0.0 | 1.0 | 0.00 | 0.01 | 0.01 | 94 | 1009.3 |
| 20260508104004 | 40 | 50 | 1.0 | 2.0 | 0.00 | 0.01 | 0.01 | 94 | 1009.3 |
| 20260508103503 | 40 | 315 | 0.0 | 1.0 | 0.00 | 0.01 | 0.01 | 94 | 1009.2 |
| 20260508103057 | 39 | 0 | 0.0 | 1.0 | 0.00 | 0.01 | 0.01 | 93 | 1010.1 |
| 20260508103003 | 40 | 69 | 0.0 | 1.0 | 0.00 | 0.01 | 0.01 | 94 | 1009.3 |
| 20260508102504 | 40 | 60 | 0.0 | 1.0 | 0.00 | 0.01 | 0.01 | 94 | 1009.3 |
| 20260508102004 | 39 | 3 | 0.0 | 1.0 | 0.00 | 0.01 | 0.01 | 93 | 1009.3 |
| 20260508101553 | 39 | 0 | 0.0 | 1.0 | 0.00 | 0.01 | 0.01 | 93 | 1010.3 |
| 20260508101503 | 39 | 47 | 0.0 | 1.0 | 0.00 | 0.01 | 0.01 | 93 | 1009.4 |
| 20260508101004 | 39 | 31 | 0.0 | 1.0 | 0.00 | 0.01 | 0.01 | 93 | 1009.4 |
| 20260508100504 | 39 | 353 | 0.0 | 1.0 | 0.00 | 0.01 | 0.01 | 93 | 1009.5 |
| 20260508100051 | 39 | 0 | 0.0 | 1.0 | 0.00 | 0.01 | 0.01 | 93 | 1010.4 |
| 20260508100004 | 39 | 27 | 0.0 | 1.0 | 0.00 | 0.01 | 0.01 | 93 | 1009.6 |
| 20260508095503 | 39 | 155 | 0.0 | 1.0 | 0.00 | 0.01 | 0.01 | 93 | 1009.7 |
| 20260508095004 | 39 | 20 | 0.0 | 1.0 | 0.00 | 0.01 | 0.01 | 93 | 1009.6 |
| 20260508094551 | 38 | 0 | 0.0 | 1.0 | 0.00 | 0.01 | 0.01 | 93 | 1010.6 |
| 20260508094503 | 39 | 178 | 0.0 | 1.0 | 0.00 | 0.01 | 0.01 | 93 | 1009.8 |
| 20260508094004 | 39 | 172 | 0.0 | 1.0 | 0.00 | 0.01 | 0.01 | 93 | 1009.9 |
| 20260508093503 | 39 | 277 | 0.0 | 1.0 | 0.00 | 0.01 | 0.01 | 93 | 1009.9 |
| 20260508093055 | 38 | 0 | 0.0 | 1.0 | 0.00 | 0.01 | 0.01 | 92 | 1010.7 |
| 20260508093003 | 39 | 298 | 0.0 | 1.0 | 0.00 | 0.01 | 0.01 | 93 | 1009.8 |
| 20260508091601 | 38 | 206 | 0.0 | 1.0 | 0.00 | 0.01 | 0.01 | 92 | 1010.7 |
| 20260508091504 | 38 | 218 | 0.0 | 1.0 | 0.00 | 0.01 | 0.01 | 93 | 1010.0 |
| 20260508091003 | 38 | 199 | 0.0 | 1.0 | 0.00 | 0.01 | 0.01 | 93 | 1010.0 |
| 20260508090503 | 38 | 225 | 1.0 | 1.0 | 0.00 | 0.01 | 0.01 | 92 | 1010.0 |
| 20260508090059 | 37 | 0 | 0.0 | 2.0 | 0.00 | 0.01 | 0.01 | 92 | 1010.7 |
| 20260508090003 | 38 | 85 | 0.0 | 1.0 | 0.00 | 0.01 | 0.01 | 92 | 1009.9 |
| 20260508085504 | 38 | 199 | 1.0 | 2.0 | 0.00 | 0.01 | 0.01 | 92 | 1009.9 |
| 20260508085003 | 38 | 200 | 1.0 | 2.0 | 0.00 | 0.01 | 0.01 | 92 | 1009.9 |
| 20260508084551 | 38 | 193 | 0.0 | 2.0 | 0.00 | 0.01 | 0.01 | 91 | 1010.7 |
| 20260508084503 | 38 | 198 | 1.0 | 2.0 | 0.00 | 0.01 | 0.01 | 92 | 1009.9 |
| 20260508084004 | 38 | 226 | 1.0 | 2.0 | 0.00 | 0.01 | 0.01 | 92 | 1009.9 |
| 20260508083503 | 38 | 186 | 0.0 | 1.0 | 0.00 | 0.01 | 0.01 | 91 | 1009.7 |
| 20260508083052 | 38 | 178 | 0.0 | 1.0 | 0.00 | 0.01 | 0.01 | 91 | 1010.6 |
| 20260508083004 | 39 | 186 | 1.0 | 1.0 | 0.00 | 0.01 | 0.01 | 91 | 1009.7 |
| 20260508082504 | 39 | 143 | 0.0 | 1.0 | 0.00 | 0.01 | 0.01 | 91 | 1009.7 |
| 20260508082003 | 39 | 143 | 0.0 | 1.0 | 0.00 | 0.01 | 0.01 | 91 | 1009.7 |
| 20260508081605 | 38 | 0 | 0.0 | 1.0 | 0.00 | 0.01 | 0.01 | 91 | 1010.5 |
| 20260508081504 | 39 | 86 | 0.0 | 1.0 | 0.00 | 0.01 | 0.01 | 91 | 1009.7 |
| 20260508081003 | 39 | 140 | 1.0 | 1.0 | 0.00 | 0.01 | 0.01 | 91 | 1009.7 |
| 20260508080503 | 39 | 200 | 0.0 | 1.0 | 0.00 | 0.01 | 0.01 | 91 | 1009.7 |
| 20260508080055 | 39 | 0 | 0.0 | 1.0 | 0.00 | 0.01 | 0.01 | 90 | 1010.6 |
| 20260508075504 | 40 | 195 | 0.0 | 1.0 | 0.00 | 0.01 | 0.01 | 91 | 1009.7 |
| 20260508075003 | 40 | 96 | 0.0 | 0.0 | 0.00 | 0.01 | 0.01 | 90 | 1009.7 |
| 20260508074556 | 40 | 0 | 0.0 | 1.0 | 0.00 | 0.01 | 0.01 | 90 | 1010.5 |
| 20260508074504 | 40 | 15 | 0.0 | 1.0 | 0.00 | 0.01 | 0.01 | 90 | 1009.6 |
| 20260508073503 | 40 | 14 | 0.0 | 1.0 | 0.00 | 0.01 | 0.01 | 90 | 1009.6 |
| 20260508073148 | 40 | 0 | 0.0 | 1.0 | 0.00 | 0.01 | 0.01 | 90 | 1010.5 |
| 20260508071602 | 41 | 0 | 0.0 | 1.0 | 0.00 | 0.01 | 0.01 | 89 | 1010.6 |
| 20260508070059 | 41 | 0 | 0.0 | 1.0 | 0.00 | 0.01 | 0.01 | 88 | 1010.7 |
| 20260508070004 | 42 | 264 | 0.0 | 1.0 | 0.00 | 0.01 | 0.01 | 89 | 1009.8 |
| 20260508064549 | 42 | 72 | 0.0 | 1.0 | 0.00 | 0.01 | 0.01 | 88 | 1010.5 |
| 20260508063047 | 42 | 0 | 0.0 | 1.0 | 0.00 | 0.01 | 0.01 | 87 | 1010.6 |
| 20260508061549 | 43 | 0 | 0.0 | 2.0 | 0.00 | 0.01 | 0.01 | 87 | 1010.8 |
| 20260508060047 | 43 | 0 | 0.0 | 2.0 | 0.00 | 0.01 | 0.01 | 87 | 1010.9 |
| 20260508054551 | 44 | 178 | 1.0 | 3.0 | 0.00 | 0.01 | 0.01 | 87 | 1010.9 |
| 20260508053052 | 44 | 152 | 1.0 | 2.0 | 0.00 | 0.01 | 0.01 | 87 | 1011.0 |
| 20260508051550 | 44 | 216 | 1.0 | 2.0 | 0.00 | 0.01 | 0.01 | 87 | 1010.9 |
| 20260508050051 | 44 | 0 | 0.0 | 2.0 | 0.01 | 0.01 | 0.01 | 86 | 1010.9 |
| 20260508044559 | 44 | 63 | 0.0 | 1.0 | 0.01 | 0.01 | 0.01 | 85 | 1010.9 |
| 20260508043054 | 44 | 0 | 0.0 | 2.0 | 0.01 | 0.01 | 0.01 | 84 | 1010.9 |
| 20260508041551 | 44 | 0 | 0.0 | 2.0 | 0.01 | 0.01 | 0.01 | 82 | 1010.9 |
| 20260508040057 | 45 | 46 | 1.0 | 5.0 | 0.00 | 0.00 | 0.00 | 79 | 1010.8 |
| 20260508040003 | 45 | 347 | 1.0 | 3.0 | 0.00 | 0.00 | 0.00 | 79 | 1010.0 |
| 20260508034549 | 45 | 178 | 1.0 | 4.0 | 0.00 | 0.00 | 0.00 | 74 | 1010.8 |
| 20260508033110 | 46 | 0 | 0.0 | 3.0 | 0.00 | 0.00 | 0.00 | 73 | 1010.8 |